Regional Weather Roundup
Issued by NWS

Home | Current Version | Previous Version | Text Only | Print | Product List | Glossary On
Versions: 1 2 3 4 5 6 7 8 9 10 11 12 13 14 15 16 17 18 19 20 21 22 23 24 25 26 27 28 29 30 31 32 33 34 35 36 37 38 39 40 41 42 43 44 45 46 47 48 49 50
000
ASUS45 KSLC 272210
RWRUT

UTAH REGIONAL WEATHER ROUNDUP
NATIONAL WEATHER SERVICE SALT LAKE CITY UT
300 PM MST TUE JAN 27 2015

UTZ001>011-023>025-272300-

NORTHERN UTAH

CITY           SKY/WX    TMP DP  RH WIND       PRES   REMARKS
BRIGHAM CITY   CLOUDY    47  37  70 NW3       30.19R
HILL AFB       PTSUNNY   51  27  39 NW2       30.17R
LOGAN          CLOUDY    42  36  79 W3        30.17F
OGDEN          CLOUDY    48  38  68 N8        30.16F
PROVO AIRPORT  CLOUDY    46  30  53 VRB5      30.19F
SALT LAKE CITY PTSUNNY   57  35  43 S17G24    30.15R
VERNAL         CLOUDY    44  27  51 CALM      30.24F
WENDOVER       CLOUDY    45  34  65 E3        30.16S
HEBER CITY     CLOUDY    41  32  70 CALM      30.18F
WEST JORDAN    PTSUNNY   54  36  50 SE14      30.17S

$$

UTZ012>022-026-027-272300-

SOUTHERN/CENTRAL UTAH

CITY           SKY/WX    TMP DP  RH WIND       PRES   REMARKS
BLANDING       CLOUDY    52  32  46 S5        30.35F
BRYCE CANYON   MOSUNNY   37  34  89 VRB7      30.29F WCI  32
CEDAR CITY     MOSUNNY   51  34  52 SW16G23   30.21F
DELTA          CLOUDY    55  36  47 S23       30.18F
MILFORD        SUNNY     54  37  52 SW21G28   30.19F
MOAB/CYNLANDS  MOSUNNY   53  32  44 N3        30.23F
PRICE          CLOUDY    45  26  47 CALM      30.25F
ST GEORGE      PTCLDY    61  45  55 W3        30.22F
KANAB          MOSUNNY   52  39  62 SW3       30.30F

$$

REGIONAL REPORTS     COLORADO/ARIZONA

CITY           SKY/WX    TMP DP  RH WIND       PRES   REMARKS
CRAIG, CO      PTSUNNY   41  27  57 S3        30.22S
GRAND JUNCTION CLOUDY    49  27  42 NW12      30.25F
RIFLE          CLOUDY    50  26  39 W18       30.21F
MONTROSE       CLOUDY    55  23  28 NW10      30.25R
CORTEZ         SUNNY     56  33  42 E3        30.28F
PAGE, AZ       NOT AVBL
GRAND CANYON   PTSUNNY   50  38  63 SW14      30.29F
KINGMAN        MOSUNNY   61  46  57 SW14      30.21F
FLAGSTAFF      MOSUNNY   48  30  49 SW12G22   30.30F

$$

REGIONAL REPORTS    NEVADA/IDAHO/WYOMING

CITY           SKY/WX    TMP DP  RH WIND       PRES   REMARKS
LAS VEGAS, NV  PTSUNNY   60  48  64 SE3       30.16F
ELY            CLOUDY    45  34  65 CALM      30.18F
ELKO           CLOUDY    48  39  71 S8        30.10F
POCATELLO, ID  LGT RAIN  45  40  82 S3        30.14S
BURLEY         CLOUDY    49  38  65 S8        30.09R
EVANSTON, WY   PTSUNNY   47  30  51 SW16      30.18F
ROCK SPRINGS   CLOUDY    45  27  49 W6        30.16S
KEMMERER       CLOUDY    41  28  60 W7        30.18F

$$


USA.gov is the U.S. government's official web portal to all federal, state and local government web resources and services.